This is the latest recevied weather packets stored in our database for station/object HB9TJM-8. If no packets are shown the sender has not sent any weather packets the latest 10 day(s).
| Time | Temp. | Humidity | Pressure | Rain* | Wind** | Luminosity | Snow |
|---|---|---|---|---|---|---|---|
| 1777657492 | 15.56° C | 58% | 1023.1 hPa | 0 mm | - | 36 W/m² | - |
| 1777657185 | 15.56° C | 57% | 1023.3 hPa | 0 mm | - | 38 W/m² | - |
| 1777656877 | 16.11° C | 56% | 1023 hPa | 0 mm | - | 41 W/m² | - |
| 1777656570 | 16.11° C | 55% | 1023.2 hPa | 0 mm | - | 41 W/m² | - |
| 1777656262 | 16.67° C | 54% | 1023.5 hPa | 0 mm | - | 41 W/m² | - |
| 1777655954 | 16.67° C | 53% | 1023.2 hPa | 0 mm | - | 40 W/m² | - |
| 1777655646 | 16.67° C | 53% | 1022.7 hPa | 0 mm | - | 40 W/m² | - |
| 1777655339 | 16.67° C | 53% | 1023 hPa | 0 mm | - | 42 W/m² | - |
| 1777655031 | 17.22° C | 52% | 1022.6 hPa | 0 mm | - | 42 W/m² | - |
| 1777654724 | 17.22° C | 51% | 1022.6 hPa | 0 mm | - | 47 W/m² | - |
| 1777654416 | 17.22° C | 51% | 1022.9 hPa | 0 mm | - | 51 W/m² | - |
| 1777654109 | 17.78° C | 51% | 1022.9 hPa | 0 mm | - | 53 W/m² | - |
| 1777653801 | 17.78° C | 50% | 1022.7 hPa | 0 mm | - | 54 W/m² | - |
| 1777653494 | 17.78° C | 50% | 1022.8 hPa | 0 mm | - | 56 W/m² | - |
| 1777653186 | 17.78° C | 50% | 1022.9 hPa | 0 mm | - | 58 W/m² | - |
| 1777652879 | 17.78° C | 52% | 1023 hPa | 0 mm | - | 59 W/m² | - |
| 1777652571 | 17.78° C | 51% | 1022.5 hPa | 0 mm | - | 61 W/m² | - |
| 1777652263 | 17.78° C | 50% | 1023.2 hPa | 0 mm | - | 93 W/m² | - |
| 1777651956 | 18.33° C | 50% | 1023 hPa | 0 mm | - | 62 W/m² | - |
| 1777651648 | 18.33° C | 49% | 1022.6 hPa | 0 mm | - | 85 W/m² | - |
| 1777651341 | 18.33° C | 48% | 1023 hPa | 0 mm | - | 63 W/m² | - |
| 1777651033 | 18.33° C | 48% | 1023 hPa | 0 mm | - | 64 W/m² | - |
| 1777650726 | 18.33° C | 47% | 1022.7 hPa | 0 mm | - | 65 W/m² | - |
| 1777650418 | 18.33° C | 47% | 1022.7 hPa | 0 mm | - | 68 W/m² | - |
| 1777650111 | 18.33° C | 47% | 1022.8 hPa | 0 mm | - | 67 W/m² | - |
* Rain latest hour (hover to see other rain measurements)
** Current wind speed in m/s (hover to see current wind gust speed)